{"data":{"norad_id":58114,"epoch":"2026-05-25T01:29:50.163360Z","epoch_age_seconds":62924,"freshness":"FRESH","line1":"1 58114U 23161T   26145.06238615 -.00000217  00000+0  48016-5 0  9995","line2":"2 58114  53.1594 170.8536 0001378  72.1967 287.9184 15.30199400146113","mean_motion":15.301994,"eccentricity":0.0001378,"inclination_deg":53.1594,"raan_deg":170.8536,"arg_perigee_deg":72.1967,"mean_anomaly_deg":287.9184,"bstar":4.8016e-6,"rev_number":14611,"period_min":94.105382605692,"perigee_km":474.27246874972,"apogee_km":476.16125307379,"semimajor_km":6853.3538609118,"source":"CELESTRAK","updated_at":"2026-05-25T13:38:18.529576Z"}}